Location: Stuttgart
(48.8069°N, 9.1544°E)
Time: 18:34:01
(UTC+01:00)

ISS - Pass Details

Date: 18 November 2017
Orbit: 401 x 407 km, 51.6° (Epoch: 18 November)

Event Time Altitude Azimuth Distance (km) Brightness Sun altitude
Exits shadow 05:31:23 12° 185° (S) 1,342 -1.2 -20.4°
Drops below altitude 10° 05:31:48 10° 179° (S) 1,448 -1.0 -20.3°
Sets 05:34:21 0° 158° (SSE) 2,302 0.4 -19.9°
